Skip Page Navigation
NASA JPL Caltech
NASA Logo - Jet Propulsion Laboratory + View the NASA Portal
+ Center for Near-Earth Object Studies
JPL Home Earth Solar System Stars & Galaxies Technology
JPL Solar System Dynamics
BODIES ORBITS EPHEMERIDES TOOLS PHYSICAL DATA DISCOVERY FAQ SITE MAP
JPL Small-Body Database Browser
Search: [ help ]  
359133 (2009 BR78)
Classification: Main-belt Asteroid          SPK-ID: 2359133
Ephemeris | Orbit Diagram | Orbital Elements | Mission Design | Physical Parameters | Discovery Circumstances | Close-Approach Data ]

[ hide orbit diagram ]
Orbit Diagram
[ switch to new HTML5 viewer ]

Note: This Java-based orbit viewer will eventually be retired.

Note: Make sure you have Java enabled on your browser to see the applet. This applet is provided as a 3D orbit visualization tool. The applet was implemented using two-body methods, and hence should not be used for determining accurate long-term trajectories (over several years or decades) or planetary encounter circumstances. For accurate long-term ephemerides, please instead use our Horizons system.

Note: If the applet is not working, here are some notes that might help.
Orbit Viewer

Additional Notes: the orbits shown in the applet are color coded. The planets are white lines, and the asteroid/comet is a blue line. The bright white line indicates the portion of the orbit that is above the ecliptic plane, and the darker portion is below the ecliptic plane. Likewise for the asteroid/comet orbit, the light blue indicates the portion above the ecliptic plane, and the dark blue the portion below the ecliptic plane.

Orbit Viewer applet originally written and kindly provided by Osamu Ajiki (AstroArts), and further modified by Ron Baalke (JPL).


Orbital Elements at Epoch 2459000.5 (2020-May-31.0) TDB
Reference: JPL 14 (heliocentric ecliptic J2000)
 Element Value Uncertainty (1-sigma)   Units 
e .1269543022998676 4.7554e-08  
a 2.398009384968367 1.7592e-08 au
q 2.093571776591174 1.1597e-07 au
i 7.329868982606756 5.695e-06 deg
node 106.9837777513971 4.3365e-05 deg
peri 9.122697889237086 5.0291e-05 deg
M 30.41896286161153 2.3619e-05 deg
tp 2458885.891548054151
(2020-Feb-06.39154805)
8.8926e-05 TDB
period 1356.359284444053
3.71
1.4926e-05
4.087e-08
d
yr
n .2654164011916338 2.9207e-09 deg/d
Q 2.702446993345561 1.9826e-08 au
  Orbit Determination Parameters
   # obs. used (total)      261  
   data-arc span      5004 days (13.70 yr)  
   first obs. used      2006-05-22  
   last obs. used      2020-02-02  
   planetary ephem.      DE431  
   SB-pert. ephem.      SB431-N16  
   condition code      0  
   norm. resid. RMS      .53383  
   source      ORB  
   producer      Otto Matic  
   solution date      2020-Feb-26 00:41:59  

Additional Information
 Earth MOID = 1.11031 au 
 Jupiter MOID = 2.38435 au 
 T_jup = 3.506 
[ show covariance matrix ]

Ephemeris | Orbit Diagram | Orbital Elements | Mission Design | Physical Parameters | Discovery Circumstances | Close-Approach Data ]

Physical Parameter Table
Parameter Symbol Value Units Sigma Reference Notes
absolute magnitude H 17.1   n/a MPO455591  

359133 (2009 BR78)          Discovered 2009-Jan-30 by LINEAR at Socorro
Reference: 20130327/Numbers.arcLast Updated: 2013-03-29

[ show close-approach data ]
Alternate Designations
 2009 BR78 = 2006 KR70 
Ephemeris | Orbit Diagram | Orbital Elements | Mission Design | Physical Parameters | Discovery Circumstances | Close-Approach Data ]
ABOUT SSD CREDITS/AWARDS PRIVACY/COPYRIGHT GLOSSARY LINKS
FirstGov 2020-Sep-21 00:42 UT
(server date/time)  
NASA Home Page
Site Manager:   Ryan S. Park
Webmaster  Alan B. Chamberlin